Weather History for KMDW - October, 2011

Change the Weather History Date:

Tuesday, October 4, 2011

  Actual Average Record
Temperature  
Mean Temperature 60 °F 59 °F  
Max Temperature 73 °F 68 °F 90 °F (1951)
Min Temperature 48 °F 50 °F 34 °F (1989)
Degree Days  
Heating Degree Days 4 7  
Month to date heating degree days 28  
Since 1 July heating degree days 110  
Cooling Degree Days 0 1  
Month to date cooling degree days 4  
Year to date cooling degree days 1033  
Growing Degree Days 10 (Base 50)    
Moisture  
Dew Point 47 °F    
Average Humidity 68    
Maximum Humidity 93    
Minimum Humidity 35    
Precipitation  
Precipitation 0.00 in 0.11 in 1.89 in (1991)
Month to date precipitation 0.40  
Year to date precipitation 30.26  
Sea Level Pressure  
Sea Level Pressure 30.25 in    
Wind  
Wind Speed 1 mph (SSE)    
Max Wind Speed 7 mph    
Max Gust Speed -    
Visibility 10 miles    
Events      
T = Trace of Precipitation, MM = Missing Value Source: NWS Daily Summary

Daily Weather History Graph

Daily Weather History Graph

Search for Another Location

Airport or City:

Trip Planner

Search our weather history database for the weather conditions in past years. The results will help you decide how hot, cold, wet, or windy it might be!

Date:

Astronomy

Oct. 04, 2011 Rise Set
Actual Time 6:50 AM CDT 6:28 PM CDT
Civil Twilight 6:23 AM CDT 6:55 PM CDT
Nautical Twilight 5:50 AM CDT 7:27 PM CDT
Astronomical Twilight 5:18 AM CDT 8:00 PM CDT
Moon 2:35 PM CDT (10/4) No Moon Set
Length of Visible Light 12h 32m
Length of Day
11h 37m
First Quarter, 56% of the Moon is Illuminated
Oct 4
First Quarter
Oct 11
Full
Oct 19
Last Quarter
Oct 26
New
Nov 2
First Quarter

Hourly Weather History & Observations

Time (CDT) Temp. Dew Point Humidity Pressure Visibility Wind Dir Wind Speed Gust Speed Precip Events Conditions
12:51 AM 51.1 °F 48.0 °F 89% 30.23 in 10.0 mi Calm Calm - N/A   Clear
1:51 AM 50.0 °F 48.0 °F 93% 30.23 in 10.0 mi Calm Calm - N/A   Clear
2:51 AM 48.9 °F 46.9 °F 93% 30.23 in 10.0 mi Calm Calm - N/A   Clear
3:51 AM 48.9 °F 46.9 °F 93% 30.25 in 10.0 mi Calm Calm - N/A   Clear
4:51 AM 48.0 °F 45.0 °F 89% 30.26 in 10.0 mi Calm Calm - N/A   Clear
5:51 AM 48.0 °F 45.0 °F 89% 30.27 in 10.0 mi Calm Calm - N/A   Partly Cloudy
6:51 AM 48.0 °F 45.0 °F 89% 30.29 in 10.0 mi Calm Calm - N/A   Scattered Clouds
7:51 AM 50.0 °F 46.9 °F 89% 30.30 in 10.0 mi Calm Calm - N/A   Scattered Clouds
8:51 AM 55.0 °F 48.9 °F 80% 30.31 in 10.0 mi Calm Calm - N/A   Partly Cloudy
9:51 AM 59.0 °F 48.9 °F 69% 30.32 in 10.0 mi SW 3.5 mph - N/A   Partly Cloudy
10:51 AM 62.6 °F 46.4 °F 55% 30.31 in 10.0 mi West 5.8 mph - N/A   Partly Cloudy
11:51 AM 66.0 °F 45.0 °F 47% 30.30 in 10.0 mi SSW 3.5 mph - N/A   Partly Cloudy
12:51 PM 68.0 °F 45.0 °F 43% 30.28 in 10.0 mi Calm Calm - N/A   Partly Cloudy
1:51 PM 71.1 °F 45.0 °F 39% 30.25 in 10.0 mi Calm Calm - N/A   Partly Cloudy
2:51 PM 72.0 °F 45.0 °F 38% 30.25 in 10.0 mi West 3.5 mph - N/A   Partly Cloudy
3:51 PM 73.0 °F 45.0 °F 37% 30.23 in 10.0 mi Calm Calm - N/A   Partly Cloudy
4:51 PM 73.0 °F 44.1 °F 35% 30.22 in 10.0 mi Calm Calm - N/A   Partly Cloudy
5:51 PM 70.0 °F 48.9 °F 47% 30.21 in 10.0 mi SE 4.6 mph - N/A   Partly Cloudy
6:51 PM 66.0 °F 48.9 °F 54% 30.22 in 10.0 mi ESE 6.9 mph - N/A   Clear
7:51 PM 64.0 °F 48.9 °F 58% 30.22 in 10.0 mi East 4.6 mph - N/A   Clear
8:51 PM 62.1 °F 48.9 °F 62% 30.22 in 10.0 mi East 5.8 mph - N/A   Clear
9:51 PM 60.8 °F 51.8 °F 72% 30.23 in 10.0 mi ESE 3.5 mph - N/A   Clear
10:51 PM 59.0 °F 52.0 °F 78% 30.22 in 10.0 mi Calm Calm - N/A   Clear
11:51 PM 57.0 °F 52.0 °F 83% 30.22 in 10.0 mi Calm Calm - N/A   Clear